DW1231 Weather Reports


time (UTC)temp
C
wind
direction
speed
KPH
gust
KPH
rain 1hr
cm
rain 24hr
cm
rain mn
cm
humidity
%
barometer
mb
20260509043221 20 0.0 0.0 0.00 3.05 3.05 86 1013.4
20260509042152 20 146 1.6 3.2 0.00 3.05 3.05 87 1013.5
20260509041201 20 142 9.7 14.5 0.00 3.05 3.05 86 1012.7
20260509040153 20 181 8.0 14.5 0.00 3.05 3.05 86 1012.8
20260509035201 21 146 11.3 16.1 0.00 3.05 3.05 81 1012.8
20260509034154 21 141 1.6 1.6 0.00 3.05 3.05 81 1014.1
20260509033201 21 158 1.6 3.2 0.00 3.05 3.05 80 1014.4
20260509032153 21 145 1.6 1.6 0.00 3.05 3.05 80 1014.1
20260509031201 21 0.0 0.0 0.00 3.05 3.05 79 1013.8
20260509030153 21 123 0.0 1.6 0.00 3.05 3.05 79 1013.8
20260509025201 21 119 0.0 1.6 0.00 3.05 3.05 79 1013.8
20260509024153 21 116 1.6 1.6 0.00 3.05 3.05 78 1013.6
20260509023201 21 93 3.2 4.8 0.00 3.05 3.05 78 1013.2
20260509022153 21 94 4.8 8.0 0.00 3.05 3.05 77 1013.1
20260509020154 22 151 6.4 9.7 0.00 3.05 3.05 76 1012.7
20260509015201 22 157 4.8 8.0 0.00 3.05 3.05 76 1012.6
20260509014153 22 133 6.4 9.7 0.00 3.05 3.05 75 1012.4
20260509013202 22 149 4.8 11.3 0.00 3.05 3.05 74 1012.2
20260509012153 22 178 6.4 12.9 0.00 3.05 3.05 73 1012.3
20260509011201 22 160 6.4 9.7 0.00 3.05 3.05 73 1012.4
20260509010153 22 134 1.6 11.3 0.00 3.05 3.05 73 1012.2
20260509005201 22 0.0 0.0 1.96 3.05 3.05 72 1012.2
20260509004153 22 0.0 0.0 1.96 3.05 3.05 71 1011.9
20260509003201 23 115 3.2 8.0 1.96 3.05 3.05 70 1011.9
20260509002154 23 141 1.6 9.7 1.96 3.05 3.05 69 1011.7
20260509001201 23 0.0 0.0 1.96 3.05 3.05 69 1011.7
20260509000154 23 143 9.7 12.9 1.96 3.05 3.05 68 1011.9
20260508235201 23 99 6.4 11.3 0.00 1.09 1.09 68 1012.1
20260508234153 24 101 8.0 12.9 0.00 1.09 1.09 66 1012.0
20260508233201 25 153 4.8 11.3 0.00 1.09 1.09 66 1012.2
20260508232153 25 146 6.4 9.7 0.00 1.09 1.09 66 1012.2
20260508231201 25 142 4.8 8.0 0.00 1.09 1.09 67 1012.3
20260508230154 25 157 8.0 9.7 0.00 1.09 1.09 66 1012.1
20260508225201 25 131 3.2 12.9 0.00 1.09 1.09 66 1012.3
20260508224213 26 0.0 0.0 0.00 1.09 1.09 63 1012.2
20260508223202 26 194 6.4 11.3 0.00 1.09 1.09 63 1012.3
20260508222154 25 0.0 0.0 0.00 1.09 1.09 63 1012.3
20260508221202 26 131 9.7 16.1 0.00 1.09 1.09 62 1012.1
20260508220153 25 160 1.6 8.0 0.00 1.09 1.09 62 1011.9
20260508215202 26 149 8.0 12.9 0.00 1.09 1.09 63 1012.1
20260508214154 25 133 6.4 14.5 0.00 1.09 1.09 62 1011.7
20260508213201 25 130 9.7 16.1 0.00 1.09 1.09 61 1012.1
20260508212153 25 153 4.8 8.0 0.00 1.09 1.09 62 1012.4
20260508211201 25 79 9.7 17.7 0.00 1.09 1.09 60 1012.6
20260508210154 25 161 8.0 12.9 0.00 1.09 1.09 63 1013.1
20260508205222 25 132 6.4 9.7 0.00 1.09 1.09 62 1013.2
20260508204153 25 116 4.8 11.3 0.00 1.09 1.09 62 1013.7
20260508203202 26 150 6.4 9.7 0.00 1.09 1.09 61 1013.7
20260508202154 26 169 4.8 11.3 0.00 1.09 1.09 61 1013.9
20260508201202 26 142 1.6 3.2 0.00 1.09 1.09 60 1013.9
20260508200153 26 116 4.8 9.7 0.00 1.09 1.09 59 1014.0
20260508195201 26 107 3.2 8.0 0.00 1.09 1.09 60 1014.2
20260508194154 26 140 8.0 14.5 0.00 1.09 1.09 57 1014.1
20260508193222 26 138 4.8 8.0 0.00 1.09 1.09 59 1014.3
20260508192154 25 134 4.8 12.9 0.00 1.09 1.09 60 1014.3
20260508191203 26 118 19.3 25.7 0.00 1.09 1.09 58 1014.5
20260508190153 25 135 9.7 14.5 0.00 1.09 1.09 60 1014.4
20260508185202 25 120 4.8 11.3 0.00 1.09 1.09 61 1014.5
20260508184153 23 114 9.7 12.9 0.00 1.09 1.09 62 1014.7
20260508183201 23 120 11.3 14.5 0.00 1.09 1.09 62 1014.9
20260508182154 23 0.0 0.0 0.00 1.09 1.09 62 1015.1
20260508181222 25 131 0.0 3.2 0.00 1.09 1.09 61 1015.3
20260508180153 23 95 8.0 12.9 0.00 1.09 1.09 63 1015.5
20260508175201 23 127 1.6 9.7 0.00 1.09 1.09 61 1015.5
20260508174154 23 48 4.8 9.7 0.00 1.09 1.09 62 1015.7
20260508173202 22 92 11.3 14.5 0.00 1.09 1.09 63 1016.0
20260508172215 23 127 6.4 11.3 0.00 1.09 1.09 60 1016.2
20260508171202 23 118 4.8 8.0 0.00 1.09 1.09 62 1016.2
20260508170154 23 144 4.8 11.3 0.00 1.09 1.09 61 1016.6
20260508165202 22 138 3.2 3.2 0.00 1.09 1.09 63 1017.0
20260508164154 22 117 11.3 16.1 0.00 1.09 1.09 63 1016.9
20260508163202 22 129 11.3 14.5 0.00 1.09 1.09 64 1017.4
20260508162154 21 109 6.4 8.0 0.00 1.09 1.09 68 1017.3
20260508161203 21 147 12.9 17.7 0.00 1.09 1.09 66 1017.6
20260508160154 20 121 3.2 4.8 0.00 1.09 1.09 69 1017.5
20260508155202 20 128 4.8 8.0 0.00 1.09 1.09 70 1017.6
20260508154154 20 130 3.2 4.8 0.00 1.09 1.09 71 1017.9
20260508153202 20 138 6.4 11.3 0.00 1.09 1.09 69 1017.6
20260508152214 19 121 4.8 8.0 0.00 1.09 1.09 78 1017.6
20260508151202 18 113 6.4 8.0 0.00 1.09 1.09 78 1017.8
20260508150154 18 117 4.8 8.0 0.00 1.09 1.09 78 1017.8
20260508145202 18 98 3.2 4.8 0.00 1.09 1.09 79 1018.2
20260508144154 17 116 6.4 11.3 0.00 1.09 1.09 82 1017.9
20260508143202 18 138 4.8 9.7 0.00 1.09 1.09 83 1018.2
20260508142214 17 117 3.2 3.2 0.00 1.09 1.09 84 1018.3
20260508141202 17 106 6.4 8.0 0.00 1.09 1.09 83 1018.2
20260508140214 17 124 8.0 11.3 0.00 1.09 1.09 86 1018.0
20260508135202 16 0.0 0.0 0.00 1.09 1.09 91 1018.3
20260508134154 16 0.0 0.0 0.00 1.09 1.09 91 1018.2
20260508133203 16 98 3.2 4.8 0.00 1.09 1.09 92 1018.2
20260508132154 16 119 6.4 9.7 0.00 1.09 1.09 93 1018.0
20260508131202 15 115 4.8 4.8 0.00 1.09 1.09 94 1017.8
20260508130154 15 131 1.6 3.2 0.00 1.09 1.09 94 1018.5
20260508125203 15 123 1.6 1.6 0.00 1.09 1.09 94 1018.6
20260508124154 15 151 3.2 3.2 0.00 1.09 1.09 94 1018.9
20260508123203 15 115 1.6 3.2 0.00 1.09 1.09 94 1018.3
20260508122154 15 123 3.2 4.8 0.15 1.09 1.09 94 1018.5
20260508121203 15 140 3.2 3.2 0.30 1.09 1.09 94 1018.3
20260508120154 15 147 4.8 8.0 0.43 1.09 1.09 95 1018.4
20260508115202 15 126 3.2 4.8 0.48 1.09 1.09 94 1018.3
20260508114155 15 149 1.6 1.6 0.86 1.09 1.09 94 1018.3
20260508113202 15 136 0.0 1.6 0.89 1.09 1.09 94 1018.3
20260508112155 15 107 6.4 8.0 0.81 0.94 0.94 93 1017.8
20260508111223 15 105 6.4 8.0 0.66 0.79 0.79 92 1018.2
20260508110214 15 131 0.0 1.6 0.51 0.66 0.66 91 1018.7
20260508105203 15 120 1.6 3.2 0.46 0.61 0.61 92 1019.1
20260508104155 15 194 6.4 8.0 0.08 0.23 0.23 92 1018.7
20260508103223 15 0.0 0.0 0.08 0.20 0.20 91 1018.2
20260508102154 15 152 8.0 12.9 0.03 0.13 0.13 91 1018.0
20260508101202 15 130 1.6 3.2 0.03 0.13 0.13 92 1017.3
20260508100154 15 136 3.2 8.0 0.03 0.13 0.13 93 1017.2
20260508095242 15 143 1.6 1.6 0.03 0.13 0.13 93 1017.3
20260508094154 15 84 6.4 8.0 0.03 0.13 0.13 92 1017.2
20260508093202 15 0.0 0.0 0.00 0.10 0.10 92 1017.6
20260508092155 15 121 0.0 1.6 0.00 0.10 0.10 92 1017.5
20260508091202 15 97 3.2 3.2 0.03 0.10 0.10 91 1017.7
20260508090155 15 160 6.4 9.7 0.10 0.10 0.10 92 1018.2
20260508085202 15 131 1.6 1.6 0.10 0.10 0.10 91 1018.0
20260508084154 15 125 1.6 1.6 0.10 0.10 0.10 90 1017.7
20260508083213 15 162 3.2 4.8 0.10 0.10 0.10 91 1017.7
20260508082132 15 136 1.6 3.2 0.10 0.10 0.10 90 1018.0
20260508081151 16 131 11.3 14.5 0.05 0.05 0.05 86 1018.3
20260508080107 16 182 4.8 8.0 0.00 0.00 0.00 82 1019.1
20260508075115 15 208 6.4 8.0 0.00 0.00 0.00 83 1019.3
20260508074127 15 0.0 0.0 0.00 0.00 0.00 85 1018.8
20260508073115 15 0.0 0.0 0.00 0.00 0.00 84 1018.8
20260508072106 14 116 4.8 4.8 0.00 0.00 0.00 89 1018.5
20260508071115 14 0.0 0.0 0.00 0.00 0.00 87 1018.8
20260508070106 15 108 3.2 3.2 0.00 0.00 0.00 88 1018.8
20260508065135 15 0.0 0.0 0.00 0.00 0.00 87 1019.4
20260508064107 15 160 3.2 3.2 0.00 0.00 0.00 84 1019.5
20260508063155 15 143 1.6 1.6 0.00 0.00 0.00 85 1019.4
20260508062107 15 0.0 0.0 0.00 0.00 0.00 85 1019.6
20260508061135 15 0.0 0.0 0.00 0.00 0.00 82 1019.2
20260508060107 15 0.0 0.0 0.00 0.00 0.00 81 1019.3
20260508055114 16 102 3.2 3.2 0.00 0.00 0.00 77 1019.0
20260508054107 16 125 1.6 3.2 0.00 0.00 0.00 79 1019.3
20260508053114 15 0.0 0.0 0.00 0.00 0.00 83 1019.6
20260508052107 15 128 0.0 1.6 0.00 0.00 0.00 84 1019.6
20260508051115 16 0.0 0.0 0.00 0.00 0.00 79 1019.6
20260508050107 16 0.0 0.0 0.00 0.00 0.00 80 1019.3
20260508044107 16 0.0 0.0 0.00 0.00 0.00 82 1019.1